Regional Weather Roundup
Issued by NWS

Home | Current Version | Previous Version | Graphics & Text | Print | Product List | Glossary On
Versions: 1 2 3 4 5 6 7 8 9 10 11 12 13 14 15 16 17 18 19 20 21 22 23 24 25 26 27 28 29 30 31 32 33 34 35 36 37 38 39 40 41 42 43 44 45 46 47 48 49 50
000
ASUS43 KOAX 252002
RWRNE

WEATHER ROUNDUP FOR NEBRASKA
NATIONAL WEATHER SERVICE OMAHA NE
300 PM CDT MON JUL 25 2016

NOTES: SATELLITE DATA IS BEING USED TO AUGMENT CLOUD COVER ABOVE
       12000 FEET.
       "FAIR" INDICATES FEW OR NO CLOUDS BELOW 12,000 FEET WITH NO
       SIGNIFICANT WEATHER AND/OR OBSTRUCTIONS TO VISIBILITY.

  * THESE STATIONS DO NOT REPORT WEATHER SUCH AS RAIN...SNOW OR FOG.

NEZ001>004-019>022-054>056-252100-
NEBRASKA PANHANDLE

CITY           SKY/WX    TMP DP  RH WIND       PRES   REMARKS
SCOTTSBLUFF    SUNNY     91  56  30 S16G24    30.09F
ALLIANCE       SUNNY     85  58  39 SE18G28   30.12F
CHADRON        SUNNY     91  54  28 S18       30.04F
SIDNEY         SUNNY     87  59  38 S20G29    30.16F
$$

NEZ057>060-069>072-079>082-252100-
SOUTHWEST NEBRASKA

CITY           SKY/WX    TMP DP  RH WIND       PRES   REMARKS
NORTH PLATTE   MOSUNNY   83  67  58 SE10      30.11F
IMPERIAL       SUNNY     88  58  36 SE16      30.12F
LEXINGTON      SUNNY     83  63  50 S12       30.13F
MCCOOK         MOSUNNY   89  63  41 SE16G22   30.11F HX  90
OGALLALA       SUNNY     88  58  36 S15       30.12F
$$

NEZ005>010-023>029-035>040-094-252100-
NORTH CENTRAL NEBRASKA

CITY           SKY/WX    TMP DP  RH WIND       PRES   REMARKS
VALENTINE      SUNNY     90  47  22 S16G29    30.08F
AINSWORTH      SUNNY     87  53  31 SE17G23   30.10F
BROKEN BOW     SUNNY     84  60  44 SE15G24   30.13F
O`NEILL        SUNNY     88  49  26 S13G18    30.12F
ORD            SUNNY     85  57  38 SE13      30.10F
THEDFORD       SUNNY     86  60  41 SE18G24   30.13F
$$

NEZ041-046>049-061>064-073>077-083>087-252100-
SOUTH CENTRAL NEBRASKA

CITY           SKY/WX    TMP DP  RH WIND       PRES   REMARKS
GRAND ISLAND   SUNNY     85  62  46 SE9       30.12F
AURORA         SUNNY     83  65  53 E8        30.12F
HASTINGS       SUNNY     85  62  46 S9G16     30.13F
HEBRON         SUNNY     86  57  36 CALM      30.10F
HOLDREGE       SUNNY     84  64  50 S10       30.13F
KEARNEY *      SUNNY     84  64  51 SE14      30.13F
$$

NEZ011>018-030>034-042>045-252100-
NORTHEAST NEBRASKA

CITY           SKY/WX    TMP DP  RH WIND       PRES   REMARKS
NORFOLK        SUNNY     83  62  49 S6        30.11F
ALBION         SUNNY     82  61  48 SE7       30.11F
BLAIR          SUNNY     84  63  48 CALM      30.10F
FREMONT        SUNNY     84  61  45 CALM      30.11F
TEKAMAH        SUNNY     87  59  38 VRB5      30.09F
WAYNE          SUNNY     83  65  54 S6        30.11F
$$

NEZ050>053-065>068-078-088>093-252100-
SOUTHEAST NEBRASKA

CITY           SKY/WX    TMP DP  RH WIND       PRES   REMARKS
LINCOLN        SUNNY     88  57  34 E7        30.10F
OMAHA EPPLEY   MOSUNNY   87  65  47 N7        30.08F
BEATRICE       SUNNY     87  56  34 E5        30.08F
FALLS CITY     PTSUNNY   85  67  54 N9        30.05F
NEBRASKA CITY  SUNNY     82  63  53 NE3       30.09F
PLATTSMOUTH    SUNNY     83  66  56 CALM      30.09F
$$

NEZ044-045-051>053-067-252100-
OMAHA AREA

CITY           SKY/WX    TMP DP  RH WIND       PRES   REMARKS
OMAHA EPPLEY   MOSUNNY   87  65  47 N7        30.08F
BLAIR          SUNNY     84  63  48 CALM      30.10F
FREMONT        SUNNY     84  61  45 CALM      30.11F
MILLARD        SUNNY     85  65  49 CALM      30.08F
OFFUTT AFB     SUNNY     86  66  50 VRB1      30.08F
PLATTSMOUTH    SUNNY     83  66  56 CALM      30.09F
WAHOO          FAIR      84  63  48 E3        30.10F
$$




USA.gov is the U.S. government's official web portal to all federal, state and local government web resources and services.